Location: ????????
(55.0559°N, 39.1270°E)
Time: 08:56:03
(UTC+00:00)

Cosmos 2333 Rocket - Pass Details

Date: 15 November 2025
Orbit: 837 x 865 km, 70.8° (Epoch: 14 December)

Event Time Altitude Azimuth Distance (km) Brightness Sun altitude
Exits shadow 00:35:27 24° 18° (NNE) 1,726 4.1 -36.6°
Drops below altitude 10° 00:37:48 10° 29° (NNE) 2,514 5.2 -36.2°
Sets 00:40:23 0° 36° (NE) 3,457 6.1 -35.9°
